TimeCST,TemperatureF,Dew PointF,Humidity,Sea Level PressureIn,VisibilityMPH,Wind Direction,Wind SpeedMPH,Gust SpeedMPH,PrecipitationIn,Events,Conditions,WindDirDegrees,DateUTC
12:53 AM,24.1,9.0,53,30.46,10.0,North,18.4,27.6,N/A,,Clear,10,2014-01-23 06:53:00
1:53 AM,19.9,5.0,52,30.51,10.0,North,17.3,31.1,N/A,,Clear,360,2014-01-23 07:53:00
2:53 AM,17.1,-8.0,33,30.56,10.0,NNE,25.3,34.5,N/A,,Clear,20,2014-01-23 08:53:00
3:53 AM,15.1,-5.1,41,30.61,10.0,NNE,11.5,19.6,N/A,,Clear,20,2014-01-23 09:53:00
4:53 AM,12.0,-6.0,44,30.64,10.0,North,17.3,29.9,N/A,,Clear,360,2014-01-23 10:53:00
5:53 AM,12.0,-6.0,44,30.67,10.0,North,15.0,23.0,N/A,,Clear,10,2014-01-23 11:53:00
6:53 AM,10.9,-7.1,44,30.72,10.0,North,17.3,-,N/A,,Mostly Cloudy,10,2014-01-23 12:53:00
7:53 AM,10.9,-5.1,49,30.76,10.0,North,17.3,21.9,N/A,,Partly Cloudy,10,2014-01-23 13:53:00
8:53 AM,10.9,-5.1,49,30.81,10.0,North,10.4,20.7,N/A,,Overcast,350,2014-01-23 14:53:00
9:53 AM,12.0,-6.0,44,30.84,10.0,North,16.1,25.3,N/A,,Overcast,10,2014-01-23 15:53:00
10:53 AM,12.9,-5.1,45,30.88,10.0,North,13.8,20.7,N/A,,Mostly Cloudy,360,2014-01-23 16:53:00
11:53 AM,15.1,-5.1,41,30.87,10.0,NNE,12.7,18.4,N/A,,Scattered Clouds,20,2014-01-23 17:53:00
12:53 PM,18.0,-5.1,36,30.85,10.0,NNE,15.0,20.7,N/A,,Clear,20,2014-01-23 18:53:00
1:53 PM,19.0,-4.0,36,30.84,10.0,Variable,5.8,-,N/A,,Clear,0,2014-01-23 19:53:00
2:53 PM,19.0,-5.1,34,30.84,10.0,North,11.5,-,N/A,,Clear,10,2014-01-23 20:53:00
3:53 PM,19.9,-5.1,33,30.83,10.0,North,11.5,-,N/A,,Clear,10,2014-01-23 21:53:00
4:53 PM,18.0,-6.0,35,30.84,10.0,North,6.9,-,N/A,,Clear,350,2014-01-23 22:53:00
5:53 PM,14.0,-2.9,47,30.83,10.0,Calm,Calm,-,N/A,,Clear,0,2014-01-23 23:53:00
6:53 PM,8.1,-2.0,64,30.86,10.0,Calm,Calm,-,N/A,,Clear,0,2014-01-24 00:53:00
7:53 PM,6.1,-2.0,69,30.86,10.0,Calm,Calm,-,N/A,,Clear,0,2014-01-24 01:53:00
8:53 PM,3.9,-0.9,80,30.85,8.0,Calm,Calm,-,N/A,,Clear,0,2014-01-24 02:53:00
9:53 PM,3.0,-2.0,80,30.84,10.0,Calm,Calm,-,N/A,,Clear,0,2014-01-24 03:53:00
10:53 PM,1.9,-2.0,83,30.85,10.0,Calm,Calm,-,N/A,,Clear,0,2014-01-24 04:53:00
11:53 PM,1.0,-2.9,83,30.84,10.0,Calm,Calm,-,N/A,,Clear,0,2014-01-24 05:53:00